Wind_Speed
26 25 24 23 21 20 19 18 17 16 16 16 17 19 19 16 14 14 13 12 12 13 17 18 16 15 15 16 16 16 16 16 16 15 14 13 14 15 16 18 20 22 25 29 32 34 35 36 35 34 33 34 34 34 35 35 33 30 28 28 27 25 24 23 22 21 20 20 20 20 21 22 22 22 22 22 20 19 18 17 17 17 16 15 15
27 26 25 23 22 20 19 18 17 15 15 17 17 19 19 16 14 14 13 12 12 12 16 18 18 16 16 16 16 16 16 16 16 17 16 15 16 16 16 17 17 19 21 24 27 31 33 34 34 34 34 35 35 35 35 35 34 31 30 29 28 27 26 24 23 23 23 22 22 22 22 22 22 22 22 22 20 19 19 18 17 18 17 16 15
27 26 24 23 21 20 19 18 18 16 16 17 17 18 18 16 14 13 12 11 11 11 14 18 19 19 18 17 18 17 16 16 16 17 17 16 16 17 17 16 15 16 17 17 19 24 27 31 33 34 35 36 36 36 36 35 35 33 32 31 30 29 28 26 25 24 24 24 24 25 24 24 23 22 22 22 21 20 20 19 18 17 17 17 16
26 25 24 22 21 20 19 17 17 17 15 16 16 16 16 15 13 11 11 10 10 10 13 16 19 20 19 18 18 18 18 17 16 16 16 16 17 18 17 16 15 16 17 17 17 18 20 25 32 34 35 36 37 38 38 37 37 35 33 33 30 28 28 28 27 25 25 25 26 27 27 26 25 24 24 23 23 22 22 20 19 18 18 17 17
25 24 24 22 20 19 18 17 16 17 15 14 15 15 14 14 12 10 10 10 9 11 13 14 17 20 20 20 19 18 18 18 18 17 16 17 18 19 19 19 18 17 17 19 21 19 17 19 26 30 33 36 38 39 39 38 39 38 35 32 30 28 28 28 27 26 26 26 27 28 29 28 27 26 26 25 25 25 24 23 21 21 20 20 19
25 24 23 21 19 18 17 17 16 16 14 13 14 14 12 12 11 10 10 9 9 9 11 13 15 17 20 21 20 20 19 20 19 18 17 17 17 19 20 20 20 19 18 19 20 20 18 17 19 23 30 34 36 38 39 39 39 38 35 33 32 31 29 29 28 27 26 27 29 30 30 30 29 28 27 27 27 27 27 26 25 24 23 23 22
24 23 22 20 18 17 17 17 17 14 12 12 12 11 10 10 10 10 9 8 8 7 9 12 13 15 18 20 21 22 21 21 21 20 19 17 17 17 18 20 20 20 19 19 19 18 19 19 18 18 23 30 32 33 37 39 38 37 35 35 34 33 31 31 30 29 27 27 29 32 32 32 31 30 30 29 29 30 30 29 28 27 27 26 25
24 22 21 19 17 16 17 17 15 12 11 11 10 9 9 9 9 7 6 6 6 6 7 9 11 13 15 18 20 21 22 23 23 22 21 19 18 17 17 18 19 20 21 21 20 19 19 21 20 16 17 24 29 30 32 35 36 36 36 36 35 32 32 32 32 30 29 28 29 31 32 33 32 32 32 31 31 32 32 32 32 31 31 30 28
23 21 19 17 15 15 16 15 12 10 9 8 8 8 8 8 6 5 5 5 5 5 6 7 9 11 12 15 17 20 21 23 23 23 22 21 20 19 18 17 17 18 20 21 21 21 22 22 21 18 17 20 26 30 31 32 33 33 33 34 33 32 32 31 30 30 30 29 28 29 30 31 32 32 32 33 33 33 34 34 34 34 34 32 30
21 19 17 15 14 14 14 13 10 8 6 6 7 7 7 6 5 4 4 4 4 4 5 6 8 9 10 11 14 17 19 21 22 23 23 23 22 21 19 18 16 15 15 16 18 19 22 23 22 21 20 20 23 28 31 32 34 34 33 32 31 30 31 32 30 30 30 29 28 28 28 29 29 30 31 32 33 34 34 35 35 35 35 34 32
19 17 15 13 12 13 13 11 9 7 6 6 6 6 5 5 4 4 4 4 4 4 4 5 7 8 9 9 11 13 15 18 19 21 21 22 23 23 22 19 17 15 14 13 14 15 16 19 21 21 21 21 21 23 27 31 33 34 34 34 32 30 29 29 28 28 29 29 28 28 27 28 29 29 30 31 32 34 35 36 37 37 36 36 34
18 16 14 12 11 11 11 10 8 6 6 6 5 5 5 4 4 3 3 3 2 2 2 4 5 6 7 8 9 10 11 14 16 18 19 20 21 22 23 22 20 18 16 14 13 13 13 14 15 17 19 20 20 19 22 26 30 32 32 32 33 33 31 27 25 25 25 25 26 26 27 29 31 31 31 32 33 34 35 36 37 38 38 37 35
17 16 13 10 9 9 9 9 8 7 6 6 5 5 5 4 4 3 3 2 2 1 1 2 3 4 5 6 7 8 9 11 13 15 17 18 19 20 21 22 22 21 19 16 15 14 13 12 12 11 13 16 17 17 18 21 25 29 31 31 31 32 32 31 28 26 25 24 24 26 28 30 31 32 33 33 33 34 34 35 35 36 37 37 36
16 15 12 9 8 9 9 9 8 7 7 7 6 5 5 5 4 4 3 2 2 1 2 2 3 3 4 4 5 6 7 8 10 11 13 14 16 17 19 20 21 21 21 19 18 17 15 14 12 10 10 11 12 14 16 19 22 25 28 31 31 30 31 32 31 29 26 25 25 27 29 31 32 33 34 34 34 35 35 35 35 35 35 35 35
15 14 11 9 8 8 9 9 8 8 8 8 8 8 7 6 6 5 4 3 2 2 2 3 3 4 4 4 4 4 5 6 8 9 10 11 13 14 16 17 18 19 20 20 19 19 18 16 14 12 11 10 10 11 12 15 19 22 25 27 30 31 31 31 31 30 28 27 28 30 31 30 31 32 33 33 34 35 35 35 35 34 34 34 33
14 13 11 9 8 8 9 9 8 8 8 9 10 10 9 8 8 8 7 5 4 2 2 3 3 4 4 5 4 4 4 5 6 7 8 9 10 11 13 15 16 16 18 19 19 19 19 18 17 15 13 12 10 9 9 12 15 18 22 25 28 30 31 31 32 32 31 30 31 32 33 32 31 31 31 31 31 32 32 32 32 31 31 31 31
14 13 11 10 9 9 9 9 9 9 8 8 10 11 11 10 10 10 9 8 6 4 4 4 4 4 4 5 5 5 4 4 4 5 6 7 8 9 10 12 13 14 15 17 18 18 18 19 19 17 15 13 11 9 7 8 10 12 15 19 22 23 25 28 30 32 33 34 34 36 36 35 34 32 31 31 30 29 29 29 29 30 29 29 29
13 13 12 11 10 9 10 10 10 10 8 8 9 10 11 11 10 10 11 10 9 8 6 6 6 5 5 5 5 5 5 4 4 4 5 6 6 7 8 10 11 12 13 14 16 17 17 18 19 19 18 17 15 12 9 8 9 10 10 10 12 13 15 19 22 24 27 31 35 38 40 40 39 38 36 35 34 32 30 28 29 29 29 29 28
12 12 13 12 10 9 10 9 9 10 9 8 8 9 10 11 11 11 12 11 10 10 8 8 7 7 5 5 6 5 5 4 4 4 4 4 5 6 7 9 10 11 11 12 14 15 16 17 18 19 20 19 18 17 14 12 11 11 11 11 10 9 10 13 16 19 22 26 29 32 34 35 36 38 39 39 38 36 34 32 31 30 30 29 28
11 12 12 12 10 10 10 9 9 9 9 9 9 9 9 10 11 12 12 12 11 10 10 9 9 7 6 6 6 6 5 4 4 4 4 3 4 5 6 8 9 10 10 11 12 13 14 15 16 17 19 20 20 20 19 18 16 14 13 13 12 12 11 12 12 13 16 19 21 23 25 27 28 31 34 37 38 39 39 37 35 33 32 30 28
10 11 12 11 11 10 10 9 9 8 8 8 8 9 9 10 10 11 11 12 11 11 11 11 10 8 7 6 6 6 6 5 4 3 3 2 2 3 5 7 7 8 9 10 11 12 13 13 14 15 16 17 19 20 20 20 19 18 17 16 16 16 15 14 13 12 12 12 13 14 15 17 18 19 21 25 28 32 36 38 38 36 32 28 24
10 10 11 11 10 10 10 9 8 7 7 6 6 7 8 9 9 10 11 11 11 11 12 12 11 9 7 5 5 6 6 5 4 3 2 2 2 2 3 5 6 6 7 8 9 10 10 11 11 12 13 14 15 17 17 18 18 18 17 16 16 16 16 15 15 15 14 13 13 12 13 13 13 13 13 14 15 18 22 26 30 32 30 25 21
9 10 10 11 10 10 9 8 7 6 5 4 4 4 5 6 7 8 9 10 10 10 10 11 10 9 7 5 5 5 5 5 4 4 3 2 2 2 2 2 3 4 4 5 6 7 8 9 10 10 11 11 12 13 13 13 13 14 14 13 13 12 12 13 13 14 14 14 14 14 14 14 14 14 14 14 14 14 14 15 17 19 21 21 21
9 9 9 10 10 9 8 8 6 5 4 3 3 4 4 4 5 6 7 8 8 8 8 8 8 6 6 5 6 6 6 5 5 4 3 3 2 2 2 2 2 2 2 3 3 4 5 6 7 8 8 9 9 9 9 9 9 9 9 9 9 9 9 10 10 11 12 13 13 13 13 13 14 14 14 15 15 15 15 15 15 15 16 18 19
10 9 8 8 9 8 7 7 6 5 3 2 3 4 4 4 4 4 4 4 5 5 5 5 5 4 4 4 5 5 6 6 5 5 4 4 4 4 4 3 3 2 2 2 2 3 3 4 4 5 6 6 6 6 6 6 6 6 6 7 7 8 8 8 9 10 11 11 12 12 12 12 13 13 14 14 14 14 15 15 15 15 15 16 17
10 9 7 7 7 7 6 6 6 5 3 2 2 3 3 2 2 2 1 1 2 2 2 2 2 2 2 2 3 3 4 4 4 5 5 5 5 4 4 4 4 4 4 3 3 4 4 4 4 4 4 4 5 5 5 5 5 6 6 7 7 8 8 8 9 9 9 9 9 9 9 9 10 10 11 11 11 11 12 11 11 11 11 12 12
9 9 7 6 5 6 6 5 5 5 3 2 2 2 2 1 0 1 1 1 1 2 3 3 3 3 3 3 3 3 2 2 2 2 3 3 4 4 4 4 4 4 4 4 5 5 5 5 5 5 5 5 5 5 5 6 6 6 7 7 7 7 7 7 7 6 6 6 6 6 6 6 6 7 7 7 7 8 8 8 7 7 7 7 7
8 8 8 6 5 5 5 5 5 4 3 2 2 2 1 1 2 3 3 3 4 5 6 7 7 7 8 8 8 8 7 7 6 5 5 3 2 3 3 3 3 4 4 4 5 5 5 5 5 5 5 5 5 6 6 6 6 6 6 6 5 5 5 5 4 4 3 3 3 3 3 3 3 3 3 4 4 4 4 4 4 4 4 4 5
9 8 9 8 5 4 4 5 4 4 3 2 3 3 3 3 4 5 5 6 7 8 8 9 9 9 10 10 10 10 9 9 8 8 8 8 7 6 5 4 4 4 4 4 4 4 4 4 5 5 5 6 6 5 5 5 5 5 4 4 4 3 3 2 2 1 1 1 1 1 1 1 1 2 2 2 3 3 4 4 5 5 5 6 6
9 9 9 9 6 4 4 5 4 3 3 3 3 4 4 5 6 7 7 8 8 8 8 8 8 8 8 8 8 8 8 8 8 7 7 8 8 8 8 7 7 7 7 6 6 6 6 6 6 6 6 6 6 6 6 5 5 4 4 4 3 3 3 2 2 2 1 1 1 1 1 1 1 2 2 3 4 5 6 6 7 8 8 9 9
10 9 9 10 8 5 4 5 5 4 3 3 4 5 6 6 7 8 8 8 8 8 7 6 6 5 5 6 6 7 8 8 7 7 7 6 6 6 6 6 6 6 6 6 7 7 7 7 7 7 6 7 7 6 6 6 5 5 5 4 4 3 3 3 2 2 1 1 1 2 2 3 3 4 5 5 6 7 8 9 10 10 11 12 12
10 10 9 10 9 7 5 5 6 5 4 4 5 6 7 7 8 9 9 9 8 8 7 6 5 4 5 5 7 7 8 7 7 7 6 6 6 5 5 5 5 5 4 4 5 6 6 6 6 6 6 6 6 5 5 5 4 4 4 3 3 2 2 1 1 1 2 2 3 4 5 6 7 7 8 9 10 11 12 12 13 14 15 15 16
9 9 9 9 9 9 7 6 6 7 6 6 6 7 8 8 9 10 10 9 9 8 7 6 5 5 4 5 6 7 7 7 7 7 6 6 5 5 4 4 4 4 4 4 4 6 6 6 6 5 5 5 4 4 3 3 2 2 1 1 1 2 2 3 4 5 6 6 7 8 9 10 11 12 12 13 14 15 16 17 18 19 20 20 21
10 10 10 9 9 9 8 7 7 8 8 7 8 9 9 10 11 11 11 11 10 9 7 6 5 5 4 4 5 5 5 5 5 5 5 5 4 3 3 4 4 5 5 5 5 5 5 5 5 4 4 3 3 2 1 1 1 2 2 3 4 5 6 7 8 9 10 11 11 12 13 14 15 16 16 17 18 19 20 21 22 22 23 24 25
11 10 10 10 9 9 9 9 9 9 9 8 9 10 11 11 12 13 13 12 12 11 9 8 6 5 5 4 4 3 3 2 2 2 3 3 3 2 2 2 2 3 4 5 5 5 5 4 4 3 3 2 2 2 3 3 4 5 6 7 7 8 9 10 11 12 13 14 15 16 16 17 18 19 20 21 21 22 23 23 24 25 25 26 26
12 12 11 11 10 10 10 10 10 10 10 10 11 12 12 13 13 14 14 13 12 12 11 9 8 7 6 5 4 3 2 1 0 1 1 1 1 1 1 2 2 2 3 4 4 5 4 4 4 4 4 4 4 5 5 6 7 8 8 9 10 11 12 13 14 15 16 16 17 18 19 19 20 21 22 23 23 24 24 25 25 25 26 26 26
14 13 13 12 12 11 10 10 11 11 11 12 12 13 14 14 14 14 14 14 14 13 12 11 10 9 8 6 5 4 2 2 1 1 1 2 2 3 3 4 4 4 4 4 4 5 5 5 5 5 5 5 5 5 6 6 7 8 9 10 11 12 13 14 16 17 18 19 19 20 21 21 22 22 23 23 24 24 24 24 24 25 25 25 25
15 15 14 13 13 13 12 11 11 12 13 13 14 14 15 15 15 15 15 15 15 15 14 13 12 10 9 7 6 5 4 3 3 3 3 4 4 5 5 5 5 5 5 4 4 4 4 5 5 5 5 4 4 4 5 6 8 9 10 11 13 14 15 15 17 18 19 20 20 21 21 22 22 22 23 23 23 24 24 24 25 25 25 25 25
16 16 16 15 15 15 14 13 12 13 14 14 15 15 16 16 16 16 16 16 16 15 14 14 12 11 10 8 7 6 5 4 5 5 5 6 7 7 6 6 6 5 5 4 3 3 3 4 4 4 3 2 3 4 6 7 9 10 11 12 14 15 16 16 17 18 19 20 21 21 22 22 22 23 23 24 25 26 26 27 27 27 27 27 26
16 17 17 17 16 16 16 15 14 14 14 15 15 16 16 17 17 17 17 16 16 16 15 14 13 12 10 9 8 7 6 5 6 7 8 7 7 7 7 6 6 5 5 4 4 4 4 4 4 3 2 2 3 4 6 7 8 10 11 12 14 15 16 17 18 19 19 20 21 22 23 23 24 24 25 25 26 27 27 27 27 27 27 27 27
16 17 18 18 17 17 17 17 16 15 15 16 16 16 17 17 17 17 18 18 17 17 16 14 13 13 11 10 8 7 6 7 8 9 8 7 6 6 8 8 8 7 7 6 6 6 5 4 4 4 4 4 4 5 7 8 10 11 13 14 15 16 17 18 19 19 19 19 19 20 21 22 22 23 23 24 25 25 25 25 26 26 26 27 27
16 17 17 17 17 17 17 17 16 16 16 17 17 16 17 18 18 18 18 18 18 18 17 15 14 13 12 10 9 7 7 7 8 8 8 6 4 7 10 11 11 11 9 8 7 7 6 5 5 5 5 5 5 7 9 11 13 15 16 17 18 19 19 18 18 17 17 16 16 17 18 19 20 21 22 23 24 24 24 25 25 26 26 27 28
16 16 16 17 17 16 16 17 18 18 18 17 17 17 18 18 18 18 18 18 18 18 17 16 15 14 13 11 9 8 8 7 7 7 7 5 5 9 13 13 13 11 10 8 8 7 6 6 5 5 5 6 7 9 11 13 15 17 19 20 20 20 19 19 18 18 17 16 16 16 17 18 20 21 22 23 23 24 25 26 27 28 28 29 29
16 15 15 16 16 15 15 17 18 19 18 18 18 18 19 19 18 18 18 18 18 18 17 17 16 15 13 11 9 8 8 7 7 7 6 5 7 12 13 12 11 10 9 8 8 7 7 7 7 7 8 8 10 12 13 15 17 19 20 21 22 22 22 21 21 21 19 19 19 19 20 21 22 23 24 24 25 26 27 28 29 30 31 31 32
17 16 15 15 15 15 15 16 18 18 19 19 19 19 19 19 19 18 18 18 18 17 17 17 17 15 14 12 10 9 9 9 9 8 7 8 10 12 11 10 9 9 9 9 9 9 9 10 11 11 10 11 12 13 15 17 20 21 22 23 24 25 25 24 23 22 22 21 22 22 23 24 26 26 27 28 28 29 30 31 32 33 34 34 35
19 18 17 16 16 15 15 16 18 18 19 19 19 19 19 18 18 18 18 19 18 17 17 17 17 16 14 13 11 10 11 12 11 10 9 10 11 11 10 10 10 10 11 11 12 12 12 13 13 13 13 14 14 15 17 20 22 22 24 25 27 27 28 27 25 24 23 24 25 26 27 28 29 30 31 31 32 33 33 34 35 36 37 37 38
22 20 19 17 17 16 15 16 18 19 19 19 19 19 18 18 18 18 19 19 19 19 18 18 18 16 15 13 12 11 13 14 13 12 11 11 11 11 11 12 12 13 14 15 16 16 16 15 15 14 14 15 16 17 20 23 23 23 26 29 30 30 30 29 27 25 26 26 27 29 30 31 32 34 35 35 36 37 38 38 39 39 40 41 41
26 24 22 20 18 17 17 18 19 19 19 19 19 18 18 18 18 19 20 20 20 20 19 19 18 17 16 15 13 13 14 15 15 13 12 12 12 13 14 15 16 17 18 18 18 18 17 16 16 15 15 16 18 21 23 25 25 25 28 32 34 33 31 29 27 26 27 28 29 31 32 33 35 36 36 37 39 39 40 41 41 42 42 42 43
30 27 25 23 21 19 18 18 19 19 19 19 19 18 18 18 18 19 20 20 21 20 20 19 19 18 17 16 15 15 15 16 16 16 16 16 17 18 19 20 20 21 21 20 20 20 19 18 19 20 20 22 24 25 27 27 27 28 30 33 34 34 33 31 29 29 30 31 32 33 34 36 37 38 39 40 41 41 42 42 43 43 43 44 44
36 32 29 26 25 23 21 20 20 20 20 20 20 20 18 18 18 19 20 21 21 21 21 20 19 19 19 18 18 18 18 18 18 19 19 20 20 21 23 24 24 25 24 24 24 23 23 23 24 25 26 27 28 30 31 31 31 31 32 34 34 34 34 33 32 32 33 34 35 36 37 38 40 41 42 43 44 44 44 44 45 45 45 46 46
33 35 34 32 29 27 26 24 22 22 21 21 22 21 21 21 20 20 20 22 22 23 22 22 21 21 21 21 20 20 21 21 21 21 21 22 22 23 24 25 26 26 25 25 26 26 26 27 28 29 30 31 32 34 35 34 34 33 33 34 35 35 34 33 33 34 35 36 37 38 39 41 42 43 44 45 45 46 46 47 47 47 47 47 48
Wind_Direction
337 334 332 328 323 319 318 317 315 312 310 308 304 298 296 293 288 282 277 272 267 256 251 249 242 231 225 223 224 226 229 228 223 222 227 230 234 236 232 229 230 230 229 230 232 232 232 232 230 228 229 228 225 224 224 226 227 225 227 232 236 239 241 240 235 230 232 236 237 236 235 234 236 239 242 242 241 241 240 235 231 234 239 242 245
336 333 331 328 324 321 318 316 315 314 311 308 302 295 293 291 284 280 277 272 269 259 250 246 241 233 227 224 223 225 230 231 229 228 229 232 237 236 230 227 226 228 229 230 233 235 235 235 233 228 227 227 226 225 226 228 229 228 229 231 233 235 239 241 238 233 232 235 238 240 240 237 236 238 238 238 239 241 242 238 232 232 233 235 238
335 333 331 328 324 321 319 316 315 316 315 308 299 293 290 288 284 286 285 275 269 264 253 246 241 235 230 226 224 224 228 231 233 234 232 230 231 230 226 225 225 227 232 233 236 239 238 236 235 232 230 227 225 226 227 228 229 230 230 230 228 229 234 238 238 235 233 233 235 239 241 240 238 237 236 236 236 239 241 240 236 234 233 234 236
333 332 330 328 324 321 320 319 318 318 315 306 297 292 288 285 285 288 284 272 262 257 251 245 240 236 233 229 226 225 227 231 233 235 234 228 223 222 226 232 234 233 231 230 235 245 247 240 236 235 234 232 229 227 226 228 229 231 232 232 230 227 230 235 237 237 235 233 233 237 240 241 240 238 237 236 236 237 238 237 236 235 235 238 241
332 332 331 328 324 321 323 325 323 318 312 301 292 286 281 281 283 282 278 272 262 255 252 248 241 237 234 231 228 227 227 230 231 232 234 232 227 228 232 236 240 240 234 230 233 240 246 244 239 235 232 232 232 229 226 227 229 230 232 234 232 229 230 234 236 237 237 235 234 236 239 241 242 240 239 238 237 238 238 236 235 236 239 242 246
332 332 331 328 325 326 329 330 325 316 306 294 285 281 277 275 276 276 276 277 270 260 256 253 247 241 237 233 230 229 229 229 230 231 232 235 236 237 238 237 238 241 240 236 234 236 243 249 251 244 234 229 231 231 228 228 230 232 233 233 231 229 230 233 235 238 240 239 237 236 237 240 241 242 241 240 239 239 239 238 238 239 243 246 249
331 331 329 327 327 332 334 331 324 315 301 287 281 279 276 273 274 277 279 279 276 265 255 252 250 246 240 236 233 231 231 231 232 233 234 235 237 240 241 239 237 239 241 240 238 239 247 253 256 254 241 231 228 230 230 230 231 233 234 233 233 232 233 235 236 237 240 241 239 237 237 238 240 242 243 243 242 241 241 241 242 243 244 247 250
330 330 328 327 330 336 337 330 322 313 298 285 278 272 270 272 276 282 283 282 279 269 257 254 254 251 246 241 237 234 233 233 234 236 236 237 237 238 240 241 239 238 239 242 242 241 245 252 255 256 248 236 230 228 228 228 230 233 235 235 235 233 234 236 237 238 238 238 237 237 237 237 239 242 244 245 245 245 244 244 245 246 247 249 250
329 329 328 328 334 339 337 330 322 311 295 283 274 269 270 274 277 282 283 281 278 271 265 263 262 259 252 246 242 239 236 235 235 236 237 237 238 238 239 241 242 242 241 243 246 245 245 251 256 257 253 242 235 231 229 227 227 229 232 234 232 231 232 234 235 236 238 237 236 236 237 238 239 242 245 247 247 247 248 250 251 252 253 254 254
328 328 327 329 336 340 337 332 324 311 293 280 275 274 274 273 271 274 276 275 274 274 273 269 267 265 261 254 248 244 241 239 237 236 236 236 237 238 239 241 244 246 246 246 248 249 249 251 254 255 254 248 240 235 233 232 230 228 227 228 229 231 234 236 236 237 239 241 239 238 238 239 241 243 246 248 248 249 251 253 255 256 256 257 259
327 326 326 330 337 338 335 332 326 309 290 283 281 278 274 271 272 277 277 273 272 270 271 270 269 270 268 262 257 252 248 245 242 240 238 236 236 237 239 239 240 242 245 248 249 250 249 248 248 250 250 246 241 237 235 234 234 233 231 229 229 232 237 241 240 238 239 242 242 243 244 244 245 246 247 248 249 250 252 253 255 256 256 257 259
325 324 324 327 333 334 332 330 322 303 289 287 285 278 273 275 279 279 272 266 267 266 271 278 280 279 274 269 265 262 257 252 247 243 241 238 236 237 238 238 237 238 240 242 247 249 248 247 247 248 246 242 240 239 237 236 235 234 234 233 232 233 238 242 241 237 237 240 243 247 250 249 249 249 249 250 250 251 252 252 253 255 255 255 256
322 320 320 321 324 326 325 325 316 298 286 285 283 280 278 277 277 279 276 270 270 290 316 318 309 297 286 276 270 268 264 260 254 249 245 242 239 238 238 238 237 237 238 238 241 246 249 251 253 254 252 249 247 245 243 243 241 237 236 235 235 236 238 240 243 244 245 246 247 248 249 248 249 249 249 250 250 251 252 253 253 254 255 255 255
319 317 315 312 313 315 316 317 310 294 282 276 276 278 278 280 283 284 283 276 278 318 347 356 348 331 316 299 284 274 269 266 262 256 250 246 242 240 240 241 239 238 239 238 238 241 245 250 255 259 262 262 262 258 253 252 250 246 242 238 238 240 241 240 242 246 250 251 250 248 245 244 245 246 247 248 249 251 252 253 254 254 254 254 255
319 315 309 301 300 304 307 308 304 292 280 275 276 277 278 282 285 283 282 281 288 321 341 352 359 352 342 332 317 300 285 274 269 263 256 248 243 239 239 241 241 240 240 240 239 240 241 243 248 253 257 262 268 272 272 268 260 252 247 243 241 243 245 245 245 246 248 250 251 247 243 241 241 242 244 245 247 249 250 251 252 252 252 253 254
322 317 307 295 292 294 296 300 300 292 283 276 276 279 282 286 287 286 287 287 287 299 318 334 348 349 345 343 341 338 317 289 275 268 262 252 243 237 234 235 238 239 239 239 240 241 240 239 241 244 247 251 257 266 283 289 276 257 247 244 243 245 248 250 250 248 246 247 249 249 246 243 242 243 244 244 244 245 245 246 247 248 250 253 254
326 322 311 298 293 289 288 292 295 291 285 278 276 278 283 286 287 286 285 284 286 290 300 312 320 326 330 334 339 348 344 319 289 271 263 256 247 239 232 230 232 233 234 235 238 239 238 236 236 238 241 244 249 255 268 287 290 275 255 244 244 248 252 253 252 251 249 247 247 248 249 248 247 246 246 246 245 244 246 247 248 249 251 253 255
330 328 321 311 302 293 287 289 291 290 288 285 281 279 280 281 279 277 275 277 282 286 291 296 301 308 316 318 323 338 350 343 322 292 269 256 246 236 229 225 226 227 228 228 231 234 235 234 234 235 238 242 245 249 252 261 276 288 289 275 257 251 252 251 249 248 249 247 247 248 250 252 252 252 250 247 245 246 248 251 252 252 253 255 257
334 331 325 320 316 305 294 290 289 286 283 282 279 275 274 274 272 268 267 268 273 279 284 288 293 300 306 305 305 314 332 343 338 324 300 271 249 231 223 221 219 220 222 223 225 228 231 233 235 235 237 239 242 244 248 250 255 268 285 295 289 277 274 269 261 255 253 252 251 251 252 253 254 255 254 250 247 247 248 250 251 252 252 253 254
338 331 323 320 320 310 299 293 292 289 284 280 275 270 266 267 267 266 265 264 265 269 273 277 281 286 290 293 293 296 308 325 332 335 331 305 272 242 227 221 216 215 218 221 225 227 229 231 234 235 236 237 239 241 244 245 247 254 264 275 282 286 290 293 289 278 268 263 259 257 256 255 255 256 255 253 251 250 249 249 249 251 252 252 253
342 330 321 321 319 311 302 299 299 298 294 286 280 273 266 263 263 264 265 264 261 261 263 266 270 274 279 284 284 285 292 305 312 318 326 322 300 257 232 223 215 211 213 218 224 229 232 235 236 237 237 237 238 241 244 245 246 250 256 263 270 275 278 283 290 296 295 290 282 277 274 271 268 266 263 260 258 256 253 249 248 248 249 251 256
344 333 325 323 320 315 311 308 305 301 296 290 282 273 265 259 258 260 263 265 263 262 263 265 268 272 274 273 270 273 281 290 296 295 291 297 302 279 244 226 214 208 209 215 221 226 232 237 239 240 240 240 241 243 246 248 248 250 253 258 264 267 268 270 276 283 290 295 298 299 299 298 298 297 295 291 286 278 269 260 253 249 247 248 255
343 336 328 323 322 322 319 316 310 302 300 299 290 277 265 257 256 258 261 265 267 267 267 267 270 272 269 259 254 258 267 275 280 280 272 268 272 280 272 245 222 209 207 212 217 220 224 228 232 236 239 240 242 243 245 247 248 250 252 255 259 262 263 265 270 274 279 284 287 290 292 295 298 301 303 305 305 304 299 288 275 264 258 257 261
341 337 328 323 324 325 323 321 316 306 305 312 302 294 286 274 266 262 262 264 265 266 267 268 270 267 259 250 248 249 253 257 261 262 258 250 243 241 242 236 223 209 207 214 219 221 222 224 225 229 232 233 235 237 238 241 243 245 249 253 257 262 265 267 270 273 276 279 280 282 284 287 290 294 297 299 300 300 300 298 295 290 284 279 278
338 334 328 325 327 326 324 325 322 313 312 317 301 295 293 289 279 268 263 264 265 266 267 267 262 253 249 250 248 246 246 246 248 250 249 243 235 229 226 221 214 212 214 219 227 231 232 227 222 221 222 223 225 226 226 230 233 236 241 245 250 256 260 264 268 271 273 275 276 276 277 280 282 284 286 287 288 288 288 287 286 285 282 279 277
336 331 324 324 329 329 328 332 331 325 321 310 286 283 291 300 288 263 240 250 261 258 244 233 226 220 231 239 237 236 237 236 238 242 244 242 238 233 229 223 218 218 218 221 229 236 239 238 234 230 228 228 230 231 232 235 239 242 245 247 250 255 260 264 265 267 268 269 269 268 268 268 269 271 273 274 275 276 277 277 276 276 274 272 271
333 328 317 313 323 329 333 338 337 328 317 290 258 264 284 320 158 149 132 139 164 154 140 139 140 139 146 150 150 150 158 173 193 209 221 230 231 229 227 225 223 223 223 224 228 234 240 241 241 238 236 236 237 240 241 243 247 250 252 254 255 257 258 259 259 258 259 262 263 263 263 263 264 267 269 270 271 272 273 273 273 273 273 274 275
328 325 315 309 316 325 330 337 337 325 308 266 234 228 199 130 129 127 123 128 133 131 129 129 128 127 125 123 117 114 113 113 112 112 115 123 146 178 194 202 206 209 211 214 217 220 224 225 222 219 219 219 222 227 230 233 236 238 239 240 241 242 242 243 244 245 246 251 257 263 266 269 272 275 277 277 276 277 277 277 277 278 279 281 284
319 320 317 313 314 321 320 321 327 324 306 256 216 197 173 148 137 132 130 131 132 132 132 128 125 122 119 117 117 117 114 110 107 103 101 98 98 102 110 122 135 141 147 164 177 179 179 180 180 181 182 183 185 188 191 196 198 199 201 202 199 197 193 192 187 182 178 210 234 250 255 260 270 277 282 289 294 302 305 307 309 310 309 309 308
314 313 314 313 312 316 314 304 305 314 303 259 216 192 177 164 152 144 142 142 140 138 135 129 125 123 121 121 123 121 115 109 105 102 99 98 98 98 98 101 106 110 113 120 125 125 124 125 126 129 135 138 139 141 143 144 144 142 142 141 140 139 136 136 135 128 118 130 198 224 240 252 265 282 291 298 304 309 312 313 314 315 314 313 313
313 310 309 308 306 311 314 303 293 291 286 261 225 200 188 179 168 160 156 155 152 147 143 140 135 132 130 127 121 113 106 102 100 98 98 100 101 103 106 105 103 102 103 107 108 105 101 100 101 103 109 115 116 118 119 119 119 120 121 122 125 129 131 136 143 148 159 209 256 270 278 284 290 295 299 302 304 306 307 307 307 307 307 306 306
310 307 305 303 301 303 309 303 287 272 266 260 236 210 197 194 187 177 171 171 170 166 163 162 158 149 137 123 109 100 94 92 91 89 89 91 93 97 104 109 111 107 103 102 106 106 105 104 106 109 114 117 119 119 120 123 126 128 131 136 141 150 161 184 219 250 272 285 289 291 292 294 295 297 298 299 300 300 301 301 301 301 301 300 300
302 303 301 300 298 296 298 300 284 264 254 253 243 222 206 204 203 195 188 187 188 186 183 179 171 159 144 126 109 100 94 89 85 83 83 86 92 100 106 114 123 128 128 125 124 124 123 124 128 131 131 131 131 130 129 131 133 138 154 207 254 275 283 289 293 294 296 296 296 296 296 296 297 298 298 299 299 299 299 299 299 299 299 299 299
293 294 294 296 296 291 290 293 282 263 251 247 245 233 217 210 211 209 203 200 201 201 199 195 187 174 159 140 121 110 101 92 86 82 80 81 83 92 108 123 136 145 147 146 145 145 145 146 147 147 144 143 144 148 156 191 238 263 274 280 286 289 292 294 295 294 294 294 294 294 294 294 295 295 295 295 296 296 297 297 297 298 298 298 298
282 285 284 287 290 287 283 282 276 265 253 246 245 240 227 217 216 218 216 212 211 210 210 207 203 194 182 167 149 132 117 101 82 70 65 66 64 66 85 131 159 170 171 170 170 170 171 171 173 176 182 194 213 235 251 260 267 272 276 279 283 286 288 289 290 290 290 290 291 291 291 292 292 293 293 294 294 295 295 296 296 296 297 297 297
274 276 277 277 278 278 276 274 272 265 256 249 246 243 236 227 222 223 224 223 221 220 219 217 214 210 203 196 189 177 161 145 80 24 25 22 352 338 325 306 281 246 224 214 207 204 203 205 211 218 225 232 240 248 255 261 266 270 274 277 280 283 285 287 287 288 288 289 289 290 291 292 293 294 295 296 296 297 297 297 297 297 296 296 296
269 269 271 271 270 269 269 267 267 264 258 253 250 246 241 236 230 227 227 227 226 225 226 225 223 220 217 215 214 212 211 217 238 261 276 284 295 301 302 299 291 280 269 257 244 235 229 226 227 231 235 240 247 253 261 269 276 282 288 292 294 296 296 297 297 297 297 297 297 297 298 298 299 299 299 298 298 298 298 298 299 299 299 299 298
267 266 266 266 265 265 262 259 259 259 257 255 251 246 243 240 236 231 228 228 228 228 228 230 230 228 226 223 222 225 231 238 246 258 272 284 292 294 294 291 286 281 277 272 261 245 228 219 219 225 234 244 259 274 285 293 299 304 305 305 305 304 304 304 304 303 302 302 302 302 302 302 301 301 300 300 301 302 303 303 304 304 304 304 303
268 266 263 262 262 261 259 255 252 252 252 253 251 246 243 242 239 235 230 229 230 231 231 233 234 234 233 228 224 226 235 244 254 266 277 284 287 284 278 271 265 261 258 255 244 221 205 201 202 208 223 253 283 296 301 304 306 307 306 305 304 303 301 301 300 299 299 300 301 301 301 302 302 302 303 304 305 306 307 307 307 307 306 306 306
270 267 265 263 262 258 254 252 250 247 246 247 248 246 242 239 238 235 232 231 231 231 232 232 234 236 236 231 226 227 236 251 265 274 279 282 281 269 252 237 230 225 219 209 197 186 182 185 187 196 217 249 276 291 297 300 301 302 302 302 302 302 302 302 301 301 300 301 301 301 301 301 302 302 304 305 306 306 307 307 307 307 307 307 307
270 269 268 268 265 258 251 248 247 247 245 243 242 242 240 238 235 233 231 231 231 231 231 230 231 234 234 229 226 231 242 257 271 279 281 283 274 244 218 199 188 185 185 183 180 177 178 185 196 209 225 242 263 284 295 299 299 299 299 300 302 304 304 305 305 305 304 303 303 302 301 302 302 304 305 306 306 306 306 306 306 307 307 307 307
267 269 270 270 266 258 249 243 242 243 242 241 240 238 237 236 234 232 231 229 229 230 230 227 227 230 230 226 229 239 253 265 275 276 277 279 254 214 195 179 170 171 173 175 179 182 189 200 213 225 239 258 277 293 301 304 304 302 302 304 305 307 308 308 309 308 308 308 307 305 304 304 305 306 308 308 308 307 307 307 307 307 307 307 307
264 267 268 268 266 256 243 237 239 239 239 240 240 238 235 233 233 232 231 228 226 227 228 224 222 223 224 226 233 246 256 264 265 261 262 262 220 196 185 175 171 174 178 183 191 199 208 220 235 250 267 281 292 298 301 304 305 306 308 310 312 314 315 317 316 314 312 311 310 308 308 307 307 308 309 309 308 308 308 308 308 308 308 308 308
258 263 264 264 260 252 241 236 238 239 239 238 237 234 232 231 230 230 230 226 223 222 222 219 216 217 221 227 235 242 246 244 239 239 241 222 192 187 185 184 187 192 197 205 216 226 237 249 259 268 277 285 291 294 298 302 304 308 312 314 316 318 321 321 318 315 312 311 310 310 310 310 309 309 309 309 309 309 309 308 308 308 308 308 308
249 254 259 259 255 249 243 241 241 240 239 237 235 234 232 230 228 228 227 223 218 216 215 214 213 215 221 228 231 230 226 219 212 212 210 195 186 190 197 207 214 219 224 231 238 245 253 259 261 263 269 277 283 289 296 302 306 309 312 314 316 318 320 319 315 311 308 307 308 309 309 309 309 309 309 309 309 309 309 309 309 309 309 309 309
243 246 250 253 252 249 245 244 244 243 241 239 236 233 231 228 226 226 224 219 213 208 208 212 216 218 221 225 226 221 214 207 201 197 194 190 192 201 214 225 232 238 244 248 252 256 260 262 262 263 269 276 283 292 302 308 311 311 311 312 314 318 320 317 312 308 306 306 307 308 309 310 310 310 310 310 310 310 310 311 310 310 310 309 309
239 241 243 245 247 247 244 244 244 244 243 241 236 231 228 226 224 223 221 217 212 208 208 213 219 220 220 221 221 215 208 205 204 203 202 202 208 219 229 236 242 249 255 258 261 264 266 267 268 272 279 285 291 298 305 309 310 308 305 304 308 314 315 311 306 304 303 304 305 307 308 309 309 309 310 311 311 311 312 311 311 310 310 310 310
234 236 237 238 240 241 241 242 243 243 243 242 239 232 227 223 222 222 220 217 215 213 212 214 218 221 221 222 222 218 213 211 212 215 219 224 231 238 243 247 251 256 262 265 268 271 275 278 282 285 290 294 296 298 300 302 303 302 299 298 302 307 308 305 301 300 300 301 303 304 305 306 307 308 309 309 310 310 310 309 309 309 308 308 308
231 231 232 233 235 236 237 239 241 242 242 242 241 236 229 224 222 223 223 222 221 219 217 216 218 220 222 224 226 226 223 221 220 223 228 233 238 242 247 251 254 258 262 266 269 272 277 283 287 289 290 293 295 296 296 295 295 294 292 292 296 301 303 301 299 299 300 301 302 303 304 305 307 307 308 308 308 308 308 308 307 307 307 306 306
229 226 226 227 229 230 232 234 237 240 240 240 239 238 234 229 226 225 225 226 227 225 223 223 223 225 227 229 230 232 233 233 232 234 236 238 241 244 248 252 256 259 262 266 269 273 277 281 283 285 287 290 294 298 299 296 292 289 287 287 291 296 298 297 296 298 300 301 302 304 305 306 307 308 308 308 308 308 308 307 307 307 307 306 306
237 229 226 226 225 224 224 226 229 234 238 239 239 238 236 233 231 230 229 230 230 230 231 232 233 234 235 236 236 237 240 241 243 245 247 248 250 252 255 259 262 265 267 270 274 278 282 285 285 286 287 288 292 295 297 295 291 286 283 284 289 294 295 294 294 297 299 300 302 304 305 306 306 306 306 306 306 306 306 306 306 306 306 306 306
Height
3111 3109 3108 3106 3104 3103 3103 3102 3101 3101 3100 3099 3098 3097 3096 3096 3095 3095 3095 3095 3095 3095 3095 3096 3097 3099 3100 3101 3102 3103 3104 3105 3106 3106 3107 3109 3110 3110 3111 3111 3112 3114 3115 3117 3118 3119 3120 3122 3124 3126 3129 3132 3134 3135 3137 3139 3141 3142 3144 3146 3149 3151 3153 3154 3156 3158 3159 3160 3162 3162 3163 3164 3166 3167 3168 3169 3170 3171 3172 3173 3173 3174 3174 3175 3176
3110 3108 3106 3104 3103 3102 3101 3100 3099 3099 3098 3097 3096 3095 3094 3094 3093 3093 3093 3093 3093 3094 3094 3094 3096 3097 3098 3099 3100 3102 3103 3104 3104 3105 3106 3107 3108 3108 3109 3109 3110 3111 3113 3114 3115 3116 3118 3120 3122 3123 3125 3128 3130 3132 3134 3136 3138 3140 3141 3143 3146 3148 3150 3152 3154 3155 3157 3158 3159 3160 3161 3162 3163 3164 3166 3167 3168 3169 3170 3171 3172 3172 3173 3173 3174
3108 3106 3104 3103 3101 3100 3099 3098 3097 3097 3096 3095 3095 3094 3092 3092 3092 3092 3091 3092 3092 3092 3092 3092 3094 3095 3096 3097 3099 3100 3101 3102 3103 3104 3104 3105 3106 3107 3107 3108 3109 3110 3111 3113 3114 3114 3116 3117 3119 3120 3122 3124 3126 3128 3130 3133 3135 3137 3138 3140 3141 3144 3147 3149 3151 3152 3154 3155 3157 3157 3158 3159 3161 3162 3163 3164 3165 3167 3168 3169 3170 3171 3171 3172 3172
3107 3105 3103 3101 3100 3098 3097 3096 3095 3094 3094 3093 3093 3092 3091 3090 3090 3090 3090 3090 3090 3090 3090 3090 3091 3093 3094 3095 3097 3098 3099 3100 3101 3102 3103 3104 3104 3105 3106 3106 3107 3108 3109 3111 3112 3113 3113 3114 3116 3117 3118 3120 3123 3124 3126 3129 3131 3133 3135 3137 3139 3141 3143 3146 3147 3149 3151 3152 3154 3155 3155 3156 3158 3159 3161 3162 3163 3164 3166 3167 3168 3169 3169 3170 3171
3106 3103 3101 3099 3098 3097 3095 3094 3093 3092 3092 3091 3090 3090 3089 3089 3088 3089 3088 3088 3089 3088 3088 3088 3089 3091 3092 3094 3095 3096 3097 3098 3099 3100 3101 3102 3103 3104 3104 3105 3105 3106 3107 3109 3110 3111 3111 3112 3113 3114 3115 3117 3119 3121 3123 3125 3128 3130 3132 3134 3137 3138 3140 3142 3144 3146 3148 3150 3151 3152 3152 3154 3155 3157 3158 3160 3161 3162 3163 3164 3165 3166 3167 3168 3169
3104 3102 3100 3098 3097 3095 3094 3092 3091 3091 3090 3089 3089 3088 3088 3087 3087 3087 3087 3087 3087 3087 3087 3087 3088 3089 3090 3092 3093 3094 3095 3096 3097 3098 3099 3100 3101 3102 3102 3102 3103 3104 3105 3106 3107 3108 3109 3109 3110 3111 3112 3114 3116 3118 3120 3122 3124 3127 3129 3131 3133 3135 3136 3139 3141 3143 3145 3146 3147 3148 3149 3151 3152 3154 3155 3157 3159 3160 3161 3162 3163 3164 3164 3165 3166
3102 3100 3098 3097 3095 3093 3092 3091 3090 3089 3088 3087 3087 3087 3087 3086 3086 3086 3086 3086 3086 3086 3086 3086 3086 3086 3088 3089 3090 3092 3093 3094 3095 3096 3097 3098 3099 3099 3100 3101 3101 3102 3103 3104 3105 3106 3107 3107 3108 3109 3109 3111 3113 3115 3117 3120 3122 3124 3126 3128 3130 3132 3134 3135 3137 3139 3141 3142 3144 3145 3146 3147 3149 3150 3152 3154 3156 3157 3158 3160 3160 3161 3162 3163 3164
3101 3099 3097 3095 3093 3092 3091 3089 3088 3087 3087 3086 3086 3086 3086 3086 3086 3085 3085 3085 3085 3085 3085 3084 3084 3085 3085 3086 3088 3089 3091 3092 3093 3094 3095 3096 3097 3097 3098 3099 3099 3100 3101 3102 3103 3104 3105 3105 3106 3107 3108 3109 3111 3113 3115 3117 3119 3121 3123 3125 3127 3129 3131 3132 3134 3136 3137 3138 3139 3141 3142 3144 3145 3147 3149 3151 3152 3154 3155 3157 3158 3159 3159 3160 3161
3099 3097 3095 3094 3092 3091 3089 3088 3087 3086 3086 3086 3085 3085 3085 3085 3085 3085 3085 3085 3084 3084 3084 3084 3083 3083 3084 3085 3085 3087 3088 3089 3091 3092 3093 3094 3094 3095 3096 3097 3098 3099 3100 3100 3101 3102 3103 3104 3105 3106 3106 3107 3109 3110 3112 3114 3116 3118 3121 3123 3124 3126 3127 3128 3130 3132 3133 3134 3136 3137 3139 3141 3142 3144 3145 3147 3149 3150 3152 3153 3155 3156 3157 3157 3158
3097 3096 3094 3093 3091 3090 3089 3088 3087 3086 3085 3085 3085 3085 3085 3085 3085 3084 3084 3084 3084 3084 3084 3083 3083 3082 3082 3083 3084 3084 3085 3087 3088 3090 3090 3091 3092 3093 3094 3095 3096 3097 3098 3099 3100 3101 3102 3103 3103 3104 3105 3106 3107 3108 3110 3111 3113 3116 3118 3120 3121 3123 3124 3125 3127 3128 3130 3131 3132 3134 3135 3137 3139 3141 3142 3144 3145 3147 3148 3150 3151 3152 3153 3154 3154
3096 3094 3093 3092 3090 3089 3088 3087 3086 3086 3085 3085 3085 3085 3085 3085 3084 3084 3084 3084 3084 3083 3083 3083 3082 3082 3082 3082 3082 3083 3083 3084 3086 3087 3088 3089 3090 3091 3092 3093 3095 3096 3097 3098 3099 3099 3100 3101 3101 3102 3103 3104 3105 3106 3107 3109 3111 3113 3115 3116 3118 3120 3121 3122 3124 3125 3127 3128 3129 3130 3132 3134 3135 3137 3139 3140 3142 3143 3144 3145 3146 3147 3149 3149 3150
3095 3093 3092 3091 3090 3089 3088 3087 3086 3086 3085 3085 3085 3085 3085 3084 3084 3084 3084 3083 3083 3083 3083 3082 3082 3081 3081 3081 3081 3081 3082 3082 3083 3084 3086 3087 3088 3089 3090 3091 3093 3094 3095 3096 3097 3098 3099 3099 3099 3100 3101 3102 3103 3104 3105 3107 3108 3110 3112 3113 3115 3117 3119 3120 3121 3122 3124 3125 3126 3127 3129 3130 3132 3133 3135 3137 3138 3139 3140 3141 3142 3143 3144 3145 3146
3093 3092 3091 3090 3089 3088 3088 3087 3086 3085 3085 3085 3085 3085 3084 3084 3084 3084 3084 3083 3083 3083 3082 3082 3081 3081 3081 3081 3080 3081 3081 3081 3082 3082 3083 3084 3085 3087 3088 3089 3090 3092 3093 3095 3096 3096 3097 3097 3098 3098 3099 3100 3101 3102 3104 3105 3106 3107 3109 3110 3112 3114 3116 3117 3119 3120 3121 3122 3123 3124 3125 3127 3128 3130 3131 3133 3134 3135 3136 3137 3138 3139 3140 3141 3142
3092 3091 3090 3089 3088 3088 3087 3086 3085 3085 3085 3084 3084 3084 3084 3084 3084 3083 3083 3083 3083 3082 3082 3082 3081 3081 3080 3080 3080 3080 3080 3080 3080 3081 3081 3082 3084 3085 3086 3087 3088 3090 3091 3093 3094 3095 3095 3096 3096 3097 3098 3098 3099 3100 3102 3103 3104 3105 3106 3107 3109 3111 3112 3114 3115 3117 3118 3119 3120 3121 3122 3123 3125 3126 3127 3129 3130 3131 3132 3133 3134 3135 3136 3137 3138
3091 3090 3089 3088 3088 3087 3086 3085 3085 3084 3084 3084 3084 3084 3084 3083 3083 3083 3083 3083 3082 3082 3082 3081 3081 3081 3080 3080 3079 3079 3079 3079 3079 3079 3080 3081 3082 3083 3084 3085 3086 3088 3089 3090 3092 3093 3094 3094 3095 3096 3096 3097 3098 3099 3100 3100 3101 3102 3103 3104 3106 3107 3108 3110 3112 3114 3115 3116 3117 3118 3119 3120 3121 3122 3123 3125 3126 3127 3128 3129 3130 3131 3132 3133 3134
3089 3088 3088 3087 3087 3086 3085 3085 3084 3084 3083 3083 3083 3083 3083 3083 3083 3082 3082 3082 3082 3082 3082 3081 3081 3080 3080 3080 3079 3079 3079 3078 3078 3079 3079 3079 3080 3081 3082 3083 3084 3085 3087 3088 3089 3090 3092 3093 3094 3095 3095 3096 3097 3098 3098 3098 3099 3099 3100 3101 3103 3104 3105 3107 3108 3110 3112 3113 3114 3115 3115 3116 3117 3118 3119 3121 3122 3123 3124 3125 3126 3127 3128 3128 3129
3088 3087 3087 3086 3086 3085 3084 3084 3083 3083 3083 3082 3082 3082 3082 3082 3082 3082 3082 3081 3081 3081 3081 3081 3081 3080 3080 3080 3079 3079 3079 3078 3078 3078 3078 3078 3079 3080 3081 3082 3082 3083 3084 3085 3087 3088 3089 3090 3092 3093 3094 3095 3096 3096 3097 3097 3097 3097 3098 3099 3100 3101 3103 3104 3105 3106 3108 3109 3110 3111 3111 3112 3113 3114 3115 3116 3118 3119 3119 3120 3121 3122 3123 3124 3125
3087 3086 3085 3085 3085 3084 3083 3083 3082 3082 3082 3081 3081 3081 3081 3081 3081 3081 3081 3081 3080 3080 3080 3080 3080 3080 3080 3080 3079 3079 3079 3078 3078 3077 3077 3077 3078 3078 3079 3080 3080 3081 3082 3083 3084 3086 3087 3088 3089 3091 3092 3093 3094 3095 3095 3096 3096 3096 3097 3098 3098 3099 3100 3101 3102 3103 3104 3105 3106 3106 3107 3108 3109 3110 3111 3112 3113 3114 3115 3116 3116 3117 3118 3119 3120
3086 3085 3085 3084 3084 3083 3083 3082 3081 3081 3080 3080 3080 3080 3080 3080 3080 3079 3079 3079 3079 3079 3079 3079 3079 3079 3079 3079 3079 3079 3079 3078 3078 3077 3077 3077 3077 3078 3078 3078 3079 3080 3081 3082 3083 3084 3085 3086 3087 3088 3090 3091 3092 3093 3094 3094 3095 3095 3096 3097 3097 3098 3099 3099 3100 3101 3101 3101 3102 3102 3103 3103 3104 3105 3106 3107 3108 3109 3110 3111 3112 3112 3113 3115 3115
3085 3085 3084 3084 3083 3083 3082 3081 3080 3080 3079 3079 3079 3079 3078 3078 3078 3078 3078 3078 3078 3078 3078 3078 3078 3079 3079 3079 3078 3078 3078 3078 3078 3077 3077 3077 3077 3077 3077 3078 3078 3079 3080 3080 3081 3082 3083 3084 3085 3086 3088 3089 3090 3091 3092 3092 3093 3094 3095 3095 3096 3097 3098 3098 3098 3099 3099 3099 3099 3100 3100 3100 3101 3101 3102 3103 3104 3105 3106 3106 3107 3108 3109 3110 3110
3085 3084 3084 3083 3083 3082 3081 3080 3080 3079 3078 3078 3077 3077 3077 3077 3077 3077 3077 3077 3077 3077 3077 3077 3077 3077 3078 3078 3078 3078 3078 3078 3077 3077 3077 3077 3076 3077 3077 3077 3077 3078 3079 3079 3080 3081 3082 3083 3084 3085 3086 3087 3088 3089 3090 3091 3092 3093 3093 3094 3095 3095 3096 3096 3097 3097 3097 3097 3097 3098 3098 3098 3098 3098 3099 3099 3100 3101 3101 3102 3102 3103 3104 3105 3106
3084 3083 3083 3083 3082 3081 3081 3080 3079 3078 3078 3077 3076 3076 3076 3076 3075 3075 3075 3076 3076 3076 3076 3076 3076 3076 3077 3077 3077 3077 3077 3077 3077 3077 3077 3077 3076 3076 3076 3077 3077 3077 3078 3079 3079 3080 3081 3082 3083 3084 3085 3086 3087 3087 3088 3089 3090 3091 3092 3093 3093 3094 3094 3095 3095 3095 3096 3096 3096 3096 3096 3096 3096 3096 3096 3097 3097 3097 3098 3098 3099 3099 3100 3101 3102
3083 3083 3082 3082 3081 3081 3080 3079 3079 3078 3077 3076 3076 3075 3075 3074 3074 3074 3074 3074 3075 3075 3075 3075 3075 3075 3076 3076 3076 3076 3076 3076 3076 3076 3076 3077 3077 3077 3077 3077 3077 3077 3078 3078 3079 3079 3080 3081 3082 3082 3083 3084 3085 3086 3087 3088 3089 3089 3090 3091 3091 3092 3092 3093 3093 3094 3094 3095 3095 3095 3095 3095 3095 3095 3095 3095 3095 3096 3096 3096 3097 3097 3098 3099 3099
3083 3082 3082 3082 3081 3081 3080 3079 3078 3077 3077 3076 3075 3075 3074 3074 3073 3073 3073 3073 3073 3074 3074 3074 3074 3075 3075 3075 3075 3075 3075 3075 3075 3076 3076 3076 3076 3077 3077 3077 3077 3077 3077 3078 3078 3079 3080 3080 3081 3082 3082 3083 3084 3085 3086 3086 3087 3088 3089 3089 3090 3090 3091 3092 3092 3093 3093 3093 3093 3093 3093 3093 3093 3093 3093 3093 3094 3094 3095 3095 3095 3096 3096 3097 3097
3083 3082 3081 3081 3081 3080 3080 3079 3078 3077 3076 3075 3075 3074 3074 3074 3073 3073 3073 3073 3073 3073 3073 3073 3074 3074 3074 3074 3074 3074 3074 3074 3075 3075 3075 3076 3076 3076 3076 3077 3077 3077 3077 3078 3078 3079 3079 3080 3081 3081 3082 3083 3083 3084 3085 3086 3086 3087 3088 3088 3089 3090 3090 3091 3091 3091 3092 3092 3092 3091 3091 3091 3091 3092 3092 3092 3092 3093 3093 3094 3094 3094 3095 3095 3095
3082 3082 3081 3080 3080 3080 3079 3079 3078 3077 3076 3075 3075 3074 3074 3073 3073 3073 3073 3072 3072 3073 3073 3073 3073 3074 3074 3074 3074 3074 3074 3074 3074 3074 3074 3075 3075 3075 3076 3076 3077 3077 3077 3078 3078 3079 3079 3080 3080 3081 3082 3083 3083 3084 3085 3085 3086 3086 3087 3087 3088 3088 3089 3089 3089 3090 3090 3090 3090 3090 3090 3090 3090 3091 3091 3091 3092 3092 3092 3092 3093 3093 3093 3093 3093
3082 3081 3081 3080 3079 3079 3079 3078 3078 3077 3077 3076 3075 3074 3074 3074 3073 3073 3073 3073 3073 3073 3073 3073 3073 3073 3074 3074 3074 3074 3074 3074 3074 3074 3074 3075 3075 3075 3075 3076 3076 3076 3077 3077 3078 3078 3079 3079 3080 3081 3082 3082 3083 3083 3084 3084 3085 3085 3085 3086 3086 3087 3087 3088 3088 3088 3088 3088 3089 3089 3089 3089 3089 3090 3090 3090 3091 3091 3091 3091 3091 3091 3091 3091 3091
3081 3080 3080 3079 3078 3078 3078 3078 3078 3077 3077 3076 3076 3075 3074 3074 3074 3073 3073 3073 3074 3074 3074 3074 3074 3074 3074 3074 3075 3075 3075 3075 3075 3075 3075 3075 3075 3075 3075 3076 3076 3076 3077 3077 3078 3078 3079 3080 3080 3081 3081 3082 3082 3083 3083 3084 3084 3084 3085 3085 3085 3086 3086 3087 3087 3087 3088 3088 3088 3088 3088 3089 3089 3089 3089 3089 3090 3090 3090 3090 3090 3090 3090 3090 3090
3080 3079 3079 3078 3078 3077 3077 3078 3078 3077 3077 3077 3076 3075 3075 3075 3074 3074 3074 3075 3075 3075 3075 3075 3075 3075 3075 3075 3075 3076 3076 3076 3076 3076 3076 3076 3076 3076 3076 3076 3076 3077 3077 3078 3078 3079 3079 3080 3080 3081 3081 3082 3082 3083 3083 3083 3084 3084 3085 3085 3086 3086 3086 3087 3087 3088 3088 3088 3088 3089 3089 3089 3089 3089 3089 3089 3089 3089 3089 3089 3089 3089 3089 3089 3089
3079 3079 3078 3078 3077 3076 3076 3077 3077 3077 3077 3077 3076 3076 3076 3075 3075 3075 3075 3076 3076 3076 3076 3076 3076 3076 3076 3076 3076 3076 3076 3076 3076 3076 3076 3076 3077 3077 3077 3077 3077 3078 3078 3078 3079 3079 3080 3080 3081 3081 3082 3082 3083 3083 3083 3084 3084 3085 3085 3086 3086 3087 3087 3087 3088 3088 3088 3089 3089 3089 3089 3089 3089 3089 3089 3089 3089 3089 3089 3089 3089 3089 3089 3088 3088
3078 3078 3077 3077 3076 3075 3075 3076 3076 3076 3077 3077 3077 3076 3076 3076 3076 3076 3076 3076 3077 3077 3077 3077 3077 3077 3077 3077 3077 3077 3077 3077 3077 3077 3077 3077 3077 3077 3077 3077 3078 3078 3079 3079 3079 3080 3080 3081 3081 3082 3082 3083 3083 3083 3084 3085 3085 3086 3086 3086 3087 3087 3087 3088 3088 3088 3089 3089 3089 3089 3089 3089 3089 3089 3089 3089 3089 3088 3088 3088 3088 3088 3087 3087 3087
3077 3077 3076 3076 3075 3074 3074 3074 3075 3075 3076 3076 3076 3076 3076 3076 3076 3076 3076 3077 3077 3077 3077 3078 3078 3078 3078 3078 3078 3078 3077 3077 3077 3077 3077 3077 3078 3078 3078 3078 3078 3079 3079 3080 3080 3081 3081 3082 3082 3082 3083 3083 3083 3084 3084 3085 3085 3086 3086 3087 3087 3087 3088 3088 3088 3088 3088 3088 3088 3088 3088 3088 3088 3088 3088 3088 3087 3087 3087 3087 3086 3086 3086 3085 3085
3076 3076 3075 3075 3074 3073 3073 3073 3074 3074 3074 3075 3076 3076 3076 3076 3076 3077 3077 3077 3077 3077 3078 3078 3078 3079 3079 3078 3078 3078 3078 3078 3078 3078 3078 3078 3078 3078 3079 3079 3079 3080 3080 3081 3081 3081 3082 3082 3082 3082 3083 3083 3084 3084 3085 3085 3085 3086 3086 3087 3087 3087 3087 3088 3088 3088 3088 3088 3088 3087 3087 3087 3087 3087 3087 3086 3086 3086 3085 3085 3085 3084 3083 3083 3082
3074 3074 3074 3073 3073 3072 3072 3072 3072 3073 3073 3074 3074 3075 3075 3075 3076 3076 3076 3077 3077 3078 3078 3078 3079 3079 3079 3079 3079 3079 3079 3079 3079 3079 3079 3079 3078 3079 3079 3079 3079 3080 3080 3081 3081 3081 3081 3082 3082 3083 3083 3084 3084 3084 3085 3085 3085 3086 3086 3086 3086 3086 3087 3087 3087 3087 3087 3086 3086 3086 3086 3086 3086 3085 3085 3085 3084 3084 3083 3083 3082 3081 3081 3080 3079
3072 3072 3072 3072 3071 3071 3071 3071 3071 3071 3072 3072 3073 3074 3074 3074 3075 3075 3076 3076 3077 3077 3078 3078 3078 3079 3079 3079 3079 3079 3079 3079 3079 3079 3079 3079 3078 3078 3079 3079 3079 3079 3080 3080 3080 3081 3081 3081 3082 3082 3083 3083 3084 3084 3084 3084 3085 3085 3085 3085 3085 3086 3086 3086 3086 3085 3085 3085 3085 3085 3084 3084 3084 3083 3083 3082 3082 3081 3081 3080 3079 3078 3078 3077 3076
3070 3070 3070 3070 3070 3070 3070 3070 3070 3070 3070 3070 3071 3072 3072 3073 3073 3074 3075 3075 3076 3076 3077 3077 3078 3078 3078 3078 3078 3079 3079 3079 3079 3079 3079 3078 3078 3078 3078 3078 3078 3079 3079 3080 3080 3080 3081 3081 3081 3082 3082 3083 3083 3083 3084 3084 3084 3084 3084 3084 3085 3085 3085 3085 3084 3084 3084 3084 3083 3083 3083 3082 3082 3081 3081 3080 3079 3079 3078 3077 3076 3075 3074 3073 3072
3068 3068 3068 3068 3068 3068 3068 3068 3068 3068 3068 3069 3069 3070 3071 3071 3072 3073 3073 3074 3075 3075 3076 3076 3077 3078 3078 3078 3078 3078 3078 3078 3078 3078 3078 3078 3078 3078 3078 3078 3078 3078 3079 3079 3079 3080 3080 3081 3081 3081 3082 3082 3082 3082 3083 3083 3083 3083 3083 3083 3083 3083 3083 3083 3082 3082 3082 3081 3081 3080 3080 3080 3079 3078 3078 3077 3076 3075 3074 3074 3073 3072 3071 3069 3068
3065 3065 3066 3066 3066 3066 3066 3066 3066 3066 3066 3067 3067 3068 3069 3069 3070 3071 3072 3072 3073 3074 3074 3075 3076 3077 3077 3078 3078 3078 3078 3078 3078 3078 3078 3078 3078 3077 3077 3077 3077 3077 3078 3078 3079 3079 3080 3080 3080 3080 3081 3081 3081 3082 3082 3082 3082 3082 3082 3081 3081 3081 3081 3080 3080 3079 3079 3078 3078 3077 3077 3076 3075 3075 3074 3073 3072 3071 3070 3070 3069 3067 3066 3065 3064
3062 3062 3063 3063 3063 3063 3064 3064 3064 3064 3064 3065 3065 3066 3066 3067 3068 3069 3070 3070 3071 3072 3073 3074 3074 3075 3076 3077 3077 3077 3077 3077 3077 3077 3077 3077 3077 3076 3076 3076 3076 3076 3077 3077 3078 3078 3079 3079 3079 3080 3080 3081 3081 3081 3081 3080 3080 3080 3080 3079 3079 3078 3078 3078 3077 3077 3076 3076 3075 3074 3073 3073 3072 3071 3070 3069 3068 3067 3066 3065 3064 3063 3062 3061 3060
3059 3059 3059 3060 3060 3061 3061 3061 3062 3062 3062 3063 3063 3064 3064 3065 3066 3067 3068 3068 3069 3070 3071 3072 3073 3073 3074 3075 3076 3076 3076 3076 3076 3076 3076 3076 3075 3075 3075 3075 3075 3075 3076 3077 3077 3078 3078 3079 3079 3080 3080 3080 3080 3080 3079 3079 3079 3078 3078 3077 3077 3076 3076 3075 3075 3074 3073 3073 3072 3071 3070 3069 3068 3068 3067 3066 3065 3064 3063 3062 3061 3060 3059 3058 3057
3056 3056 3056 3056 3057 3058 3058 3059 3059 3060 3060 3060 3061 3061 3062 3062 3063 3064 3065 3066 3067 3068 3069 3070 3071 3071 3072 3073 3074 3074 3075 3075 3074 3074 3074 3074 3074 3073 3073 3074 3074 3075 3076 3076 3077 3078 3078 3079 3079 3079 3079 3079 3079 3079 3078 3078 3077 3077 3076 3076 3075 3074 3074 3073 3072 3071 3071 3070 3069 3068 3067 3067 3066 3065 3064 3064 3062 3061 3060 3059 3058 3057 3056 3055 3054
3053 3053 3053 3053 3054 3054 3055 3056 3057 3057 3057 3058 3058 3059 3060 3060 3061 3062 3062 3064 3065 3065 3066 3068 3069 3069 3070 3071 3072 3072 3073 3073 3072 3072 3072 3072 3072 3072 3072 3073 3073 3074 3075 3076 3077 3077 3078 3078 3078 3078 3078 3078 3078 3077 3077 3076 3076 3075 3074 3074 3073 3072 3071 3071 3070 3069 3068 3068 3067 3066 3065 3065 3064 3063 3062 3061 3060 3059 3058 3057 3056 3055 3053 3052 3051
3050 3050 3050 3050 3051 3051 3052 3053 3054 3054 3055 3055 3056 3057 3057 3057 3058 3059 3060 3061 3062 3063 3064 3065 3066 3067 3068 3069 3070 3070 3071 3071 3070 3070 3070 3070 3071 3071 3072 3072 3073 3073 3074 3075 3076 3076 3076 3077 3077 3077 3077 3077 3076 3075 3075 3074 3074 3073 3072 3071 3070 3069 3069 3068 3067 3066 3066 3065 3065 3064 3063 3062 3062 3061 3060 3059 3058 3057 3055 3054 3053 3052 3050 3049 3047
3047 3047 3047 3047 3048 3048 3049 3050 3051 3051 3052 3053 3053 3054 3054 3055 3055 3056 3057 3059 3060 3061 3062 3063 3064 3065 3066 3067 3067 3068 3069 3069 3069 3069 3069 3069 3070 3070 3071 3072 3072 3072 3073 3073 3074 3074 3074 3075 3075 3075 3075 3074 3074 3073 3073 3072 3071 3070 3069 3068 3067 3066 3066 3065 3064 3063 3063 3062 3061 3061 3060 3059 3058 3057 3056 3056 3054 3053 3052 3050 3049 3048 3046 3044 3043
3043 3044 3044 3045 3045 3046 3046 3047 3048 3049 3049 3050 3050 3051 3051 3052 3053 3054 3055 3056 3057 3058 3060 3061 3062 3062 3063 3064 3065 3066 3067 3067 3067 3068 3068 3068 3069 3070 3070 3071 3071 3071 3071 3071 3072 3072 3072 3072 3073 3073 3073 3072 3072 3071 3070 3070 3069 3068 3067 3066 3065 3064 3063 3063 3062 3061 3060 3059 3058 3057 3056 3055 3054 3053 3052 3051 3050 3049 3047 3046 3044 3042 3041 3039 3038
3040 3041 3041 3042 3042 3043 3044 3044 3045 3046 3046 3047 3048 3048 3049 3049 3050 3051 3052 3054 3055 3056 3057 3058 3059 3060 3061 3062 3063 3064 3064 3065 3066 3066 3066 3067 3068 3068 3069 3069 3069 3069 3069 3070 3070 3070 3070 3070 3070 3070 3070 3070 3069 3068 3068 3067 3066 3065 3064 3063 3062 3061 3060 3060 3058 3058 3057 3055 3054 3053 3052 3051 3050 3049 3048 3046 3045 3043 3042 3041 3039 3037 3035 3033 3032
3037 3037 3038 3039 3039 3040 3041 3042 3042 3043 3043 3044 3045 3046 3046 3047 3048 3049 3050 3051 3052 3053 3054 3055 3056 3057 3058 3059 3060 3061 3062 3063 3064 3065 3065 3066 3066 3067 3067 3067 3067 3067 3067 3067 3067 3067 3067 3067 3067 3068 3067 3067 3066 3066 3065 3064 3063 3062 3061 3060 3059 3058 3057 3056 3055 3054 3053 3052 3051 3049 3048 3047 3045 3044 3042 3041 3039 3038 3036 3035 3033 3031 3029 3027 3025
3033 3033 3034 3035 3036 3037 3038 3039 3039 3040 3041 3042 3042 3043 3044 3044 3045 3046 3048 3049 3050 3050 3051 3053 3054 3055 3056 3057 3058 3059 3060 3061 3062 3063 3064 3064 3064 3064 3064 3064 3064 3064 3064 3064 3064 3064 3064 3064 3064 3064 3064 3064 3063 3063 3062 3061 3060 3059 3058 3056 3055 3054 3054 3053 3051 3050 3049 3048 3047 3046 3044 3043 3041 3040 3038 3036 3035 3033 3031 3029 3028 3026 3024 3022 3020
3028 3029 3030 3031 3032 3033 3035 3036 3037 3038 3039 3039 3040 3041 3041 3042 3042 3044 3045 3046 3047 3048 3049 3050 3051 3052 3053 3054 3054 3056 3057 3058 3059 3060 3061 3061 3062 3061 3061 3061 3061 3061 3061 3061 3061 3061 3061 3061 3061 3061 3061 3060 3060 3059 3058 3057 3056 3055 3054 3052 3051 3050 3050 3048 3048 3047 3045 3044 3043 3041 3040 3038 3036 3035 3033 3031 3030 3028 3026 3024 3022 3021 3019 3017 3015
3022 3024 3026 3027 3028 3030 3031 3032 3033 3034 3036 3037 3038 3038 3039 3039 3040 3041 3042 3043 3044 3045 3046 3047 3048 3049 3049 3050 3051 3052 3053 3053 3055 3056 3057 3057 3058 3058 3058 3057 3057 3057 3058 3058 3058 3058 3058 3058 3058 3057 3057 3056 3056 3055 3054 3053 3052 3051 3050 3048 3047 3046 3045 3044 3043 3042 3041 3039 3038 3036 3034 3033 3031 3029 3027 3025 3023 3022 3020 3018 3016 3014 3012 3010 3008
3018 3020 3021 3022 3024 3025 3026 3028 3029 3031 3032 3033 3035 3036 3036 3037 3037 3038 3039 3040 3041 3042 3043 3044 3045 3045 3046 3047 3047 3048 3049 3050 3051 3051 3052 3053 3053 3053 3053 3053 3053 3054 3054 3054 3054 3054 3054 3054 3053 3053 3052 3052 3051 3050 3049 3048 3047 3046 3045 3044 3043 3042 3041 3040 3039 3037 3036 3034 3033 3031 3029 3028 3026 3024 3022 3020 3018 3016 3014 3012 3010 3007 3005 3003 3001